Skip Page Navigation
NASA JPL Caltech
NASA Logo - Jet Propulsion Laboratory + View the NASA Portal
+ Center for Near-Earth Object Studies
JPL Home Earth Solar System Stars & Galaxies Technology
JPL Solar System Dynamics
BODIES ORBITS EPHEMERIDES TOOLS PHYSICAL DATA DISCOVERY FAQ SITE MAP
JPL Small-Body Database Browser
Search: [ help ]  
15609 Kosmaczewski (2000 GP124)
Classification: Mars-crossing Asteroid          SPK-ID: 2015609
Ephemeris | Orbit Diagram | Orbital Elements | Mission Design | Physical Parameters | Discovery Circumstances ]

[ show orbit diagram ]
Orbital Elements at Epoch 2459396.5 (2021-Jul-01.0) TDB
Reference: JPL 28 (heliocentric ecliptic J2000)
 Element Value Uncertainty (1-sigma)   Units 
e .2900304279538631 3.8183e-08  
a 2.270598046545765 8.5109e-09 au
q 1.612055523394891 8.7004e-08 au
i 6.731411630919792 4.7404e-06 deg
node 138.8061608142089 2.8155e-05 deg
peri 163.5175423747845 2.9186e-05 deg
M 18.62594419043442 8.0644e-06 deg
tp 2459331.841650671365
(2021-Apr-27.34165067)
2.779e-05 TDB
period 1249.708767529908
3.42
7.0265e-06
1.924e-08
d
yr
n .2880671155981023 1.6197e-09 deg/d
Q 2.929140569696639 1.0979e-08 au
  Orbit Determination Parameters
   # obs. used (total)      1116  
   data-arc span      11304 days (30.95 yr)  
   first obs. used      1990-07-27  
   last obs. used      2021-07-08  
   planetary ephem.      DE441  
   SB-pert. ephem.      SB441-N16  
   condition code      0  
   norm. resid. RMS      .55971  
   source      ORB  
   producer      Otto Matic  
   solution date      2021-Jul-09 10:02:36  

Additional Information
 Earth MOID = .597692 au 
 Jupiter MOID = 2.33249 au 
 T_jup = 3.547 
[ show covariance matrix ]

Ephemeris | Orbit Diagram | Orbital Elements | Mission Design | Physical Parameters | Discovery Circumstances ]

Physical Parameter Table
Parameter Symbol Value Units Sigma Reference Notes
absolute magnitude H 15.48   n/a E2021B10  
diameter diameter 4.742 km 0.927 urn:nasa:pds:neowise_diameters_albedos::2.0[mainbelt] (http://adsabs.harvard.edu/abs/2016AJ....152...63N)  
rotation period rot_per 5.22 h n/a LCDB (Rev. 2020-October); Warner et al., 2009 Result based on less than full coverage, so that the period may be wrong by 30 percent or so.
Published Reference List:
[Clark, M. (2015) Minor Planet Bull. 42, 15-20.]
geometric albedo albedo 0.069   0.031 urn:nasa:pds:neowise_diameters_albedos::2.0[mainbelt] (http://adsabs.harvard.edu/abs/2015ApJ...814..117N)  

15609 Kosmaczewski           Discovered 2000 Apr. 7 by the Lincoln Laboratory Near-Earth Asteroid Research Team at Socorro.
Named in honor of Sara G. Kosmaczewski for achievement as a finalist in the 2001 Discovery Young Scientist Challenge (DYSC), a middle school science competition. Sara is a student at the St. Rita School, Hamden, Connecticut.
NOTE: some special characters may not display properly (any characters within {} are an attempt to place the proper accent above a character)
Reference: 20011002/MPCPages.arcLast Updated: 2009-05-11

Alternate Designations
 2000 GP124 = 1990 ON3 = 1997 RO10 
Ephemeris | Orbit Diagram | Orbital Elements | Mission Design | Physical Parameters | Discovery Circumstances ]
ABOUT SSD CREDITS/AWARDS PRIVACY/COPYRIGHT GLOSSARY LINKS
FirstGov 2021-Aug-01 23:39 UT
(server date/time)  
NASA Home Page
Site Manager:   Ryan S. Park
Webmaster  Alan B. Chamberlin